CW2551 Weather Reports


Display with metric or nautical units.
time (UTC)temp
F
wind
direction
speed
MPH
gust
MPH
rain 1hr
in
rain 24hr
in
rain mn
in
humidity
%
barometer
mb
20260510071106 65 307 0.0 0.0 0.00 0.00 0.00 60 1013.5
20260510071020 65 308 0.0 0.0 0.00 0.00 0.00 60 1013.5
20260510070023 65 311 0.0 0.0 0.00 0.00 0.00 59 1013.5
20260510065104 65 311 0.0 0.0 0.00 0.00 0.00 59 1013.6
20260510065021 66 311 0.0 0.0 0.00 0.00 0.00 59 1013.5
20260510064605 66 311 0.0 0.0 0.00 0.00 0.00 59 1013.5
20260510064104 66 311 0.0 0.0 0.00 0.00 0.00 58 1013.5
20260510064021 66 311 0.0 0.0 0.00 0.00 0.00 58 1013.5
20260510063606 66 311 0.0 0.0 0.00 0.00 0.00 58 1013.5
20260510063107 66 311 0.0 0.0 0.00 0.00 0.00 58 1013.6
20260510063020 66 311 0.0 0.0 0.00 0.00 0.00 57 1013.6
20260510062606 66 311 0.0 0.0 0.00 0.00 0.00 57 1013.6
20260510062105 67 311 0.0 0.0 0.00 0.00 0.00 57 1013.6
20260510062021 67 311 0.0 0.0 0.00 0.00 0.00 57 1013.6
20260510061021 67 311 0.0 0.0 0.00 0.00 0.00 56 1013.6
20260510060606 67 311 0.0 0.0 0.00 0.00 0.00 56 1013.6
20260510060105 67 311 0.0 0.0 0.00 0.00 0.00 56 1013.6
20260510060020 68 311 0.0 0.0 0.00 0.00 0.00 55 1013.6
20260510055604 68 311 0.0 0.0 0.00 0.00 0.00 55 1013.6
20260510055105 68 311 0.0 0.0 0.00 0.00 0.00 54 1013.6
20260510055021 68 311 0.0 0.0 0.00 0.00 0.00 54 1013.5
20260510054604 68 311 0.0 0.0 0.00 0.00 0.00 54 1013.5
20260510054104 68 311 0.0 0.0 0.00 0.00 0.00 54 1013.5
20260510054021 69 311 0.0 0.0 0.00 0.00 0.00 53 1013.5
20260510053021 69 311 0.0 0.0 0.00 0.00 0.00 53 1013.4
20260510052606 69 311 0.0 0.0 0.00 0.00 0.00 53 1013.4
20260510052021 70 311 0.0 0.0 0.00 0.00 0.00 52 1013.3
20260510051605 70 311 0.0 0.0 0.00 0.00 0.00 52 1013.3
20260510051105 70 311 0.0 0.0 0.00 0.00 0.00 51 1013.3
20260510051020 70 311 0.0 0.0 0.00 0.00 0.00 52 1013.3
20260510050604 70 311 0.0 0.0 0.00 0.00 0.00 52 1013.3
20260510050108 71 311 0.0 0.0 0.00 0.00 0.00 52 1013.1
20260510050021 71 311 0.0 0.0 0.00 0.00 0.00 51 1013.1
20260510045605 71 311 0.0 0.0 0.00 0.00 0.00 51 1013.1
20260510045021 72 311 0.0 0.0 0.00 0.00 0.00 50 1013.0
20260510044605 72 311 0.0 0.0 0.00 0.00 0.00 50 1013.0
20260510044020 72 311 0.0 0.0 0.00 0.00 0.00 48 1012.9
20260510043604 72 311 0.0 0.0 0.00 0.00 0.00 48 1012.9
20260510043105 73 311 0.0 0.0 0.00 0.00 0.00 48 1012.8
20260510043023 73 311 0.0 0.0 0.00 0.00 0.00 47 1012.8
20260510042106 73 311 0.0 0.0 0.00 0.00 0.00 47 1012.6
20260510041605 73 311 0.0 0.0 0.00 0.00 0.00 47 1012.7
20260510041105 73 311 0.0 0.0 0.00 0.00 0.00 48 1012.5
20260510041022 73 312 0.0 0.0 0.00 0.00 0.00 48 1012.3
20260510040605 73 312 0.0 0.0 0.00 0.00 0.00 48 1012.3
20260510040105 73 315 0.0 0.0 0.00 0.00 0.00 46 1012.2
20260510040022 73 317 0.0 0.0 0.00 0.00 0.00 48 1012.1
20260510035605 73 317 0.0 0.0 0.00 0.00 0.00 48 1012.1
20260510035104 73 316 0.0 0.0 0.00 0.00 0.00 49 1011.9
20260510035020 73 307 0.0 0.0 0.00 0.00 0.00 49 1011.9
20260510034604 73 307 0.0 0.0 0.00 0.00 0.00 49 1011.9
20260510034105 74 306 0.0 0.0 0.00 0.00 0.00 51 1011.7
20260510034021 74 308 0.0 0.0 0.00 0.00 0.00 49 1011.6
20260510033604 74 308 0.0 0.0 0.00 0.00 0.00 49 1011.6
20260510033104 75 312 0.0 0.0 0.00 0.00 0.00 47 1011.5
20260510033022 76 312 0.0 0.0 0.00 0.00 0.00 46 1011.5
20260510032605 76 312 0.0 0.0 0.00 0.00 0.00 46 1011.5
20260510032105 76 312 0.0 0.0 0.00 0.00 0.00 46 1011.3
20260510032021 77 320 0.0 0.0 0.00 0.00 0.00 45 1011.2
20260510031605 77 320 0.0 0.0 0.00 0.00 0.00 45 1011.2
20260510031105 77 322 0.0 0.0 0.00 0.00 0.00 46 1011.2
20260510031021 78 331 0.0 0.0 0.00 0.00 0.00 45 1011.1
20260510030605 78 331 0.0 0.0 0.00 0.00 0.00 45 1011.1
20260510030105 78 331 0.0 0.0 0.00 0.00 0.00 45 1011.2
20260510030022 79 331 0.0 0.0 0.00 0.00 0.00 43 1011.0
20260510025606 79 331 0.0 0.0 0.00 0.00 0.00 43 1011.0
20260510025104 79 331 0.0 0.0 0.00 0.00 0.00 41 1011.1
20260510024607 80 331 0.0 0.0 0.00 0.00 0.00 38 1011.1
20260510024105 80 331 0.0 0.0 0.00 0.00 0.00 36 1011.0
20260510023605 81 331 0.0 0.0 0.00 0.00 0.00 36 1011.0
20260510023104 81 331 0.0 0.0 0.00 0.00 0.00 35 1011.0
20260510023022 81 331 0.0 0.0 0.00 0.00 0.00 37 1010.9
20260510022605 81 331 0.0 0.0 0.00 0.00 0.00 37 1010.9
20260510022104 82 331 0.0 0.0 0.00 0.00 0.00 36 1011.0
20260510021105 83 333 0.0 0.0 0.00 0.00 0.00 34 1010.9
20260510021022 83 334 0.0 1.0 0.00 0.00 0.00 32 1011.0
20260510020604 83 334 0.0 1.0 0.00 0.00 0.00 32 1011.0
20260510020105 83 336 0.0 3.0 0.00 0.00 0.00 31 1011.0
20260510020024 83 332 1.0 3.0 0.00 0.00 0.00 31 1011.0
20260510015605 83 332 1.0 3.0 0.00 0.00 0.00 31 1011.0
20260510015105 84 347 0.0 3.0 0.00 0.00 0.00 31 1011.0
20260510014105 84 340 0.0 3.0 0.00 0.00 0.00 31 1011.0
20260510014020 84 340 0.0 3.0 0.00 0.00 0.00 30 1011.1
20260510013604 84 340 0.0 3.0 0.00 0.00 0.00 30 1011.1
20260510012606 84 322 0.0 3.0 0.00 0.00 0.00 31 1011.2
20260510012104 84 301 1.0 5.0 0.00 0.00 0.00 29 1011.2
20260510012020 85 328 1.0 5.0 0.00 0.00 0.00 29 1011.2
20260510011606 85 328 1.0 5.0 0.00 0.00 0.00 29 1011.2
20260510011021 85 346 1.0 8.0 0.00 0.00 0.00 28 1011.3
20260510010606 85 346 1.0 8.0 0.00 0.00 0.00 28 1011.3
20260510010024 85 20 1.0 10.0 0.00 0.00 0.00 26 1011.4
20260510005604 85 20 1.0 10.0 0.00 0.00 0.00 26 1011.4
20260510005104 85 354 2.0 8.0 0.00 0.00 0.00 26 1011.4
20260510005021 85 315 1.0 3.0 0.00 0.00 0.00 27 1011.4
20260510004605 85 315 1.0 3.0 0.00 0.00 0.00 27 1011.4
20260510004105 85 326 0.0 2.0 0.00 0.00 0.00 27 1011.3
20260510004022 85 301 0.0 0.0 0.00 0.00 0.00 28 1011.4
20260510003605 85 301 0.0 0.0 0.00 0.00 0.00 28 1011.4
20260510003105 86 293 0.0 3.0 0.00 0.00 0.00 27 1011.4
20260510003026 86 331 1.0 5.0 0.00 0.00 0.00 27 1011.3
20260510002106 86 16 1.0 8.0 0.00 0.00 0.00 25 1011.4
20260510002021 86 352 6.0 12.0 0.00 0.00 0.00 25 1011.5
20260510001106 86 7 2.0 6.0 0.00 0.00 0.00 26 1011.5
20260510001021 87 357 1.0 8.0 0.00 0.00 0.00 24 1011.6
20260510000604 87 357 1.0 8.0 0.00 0.00 0.00 24 1011.6
20260510000104 87 356 3.0 10.0 0.00 0.00 0.00 23 1011.6
20260510000023 87 348 2.0 6.0 0.00 0.00 0.00 24 1011.6
20260509235605 87 348 2.0 6.0 0.00 0.00 0.00 24 1011.6
20260509235104 87 13 1.0 5.0 0.00 0.00 0.00 25 1011.6
20260509235022 87 22 3.0 8.0 0.00 0.00 0.00 24 1011.5
20260509234604 87 22 3.0 8.0 0.00 0.00 0.00 24 1011.5
20260509234105 87 289 0.0 12.0 0.00 0.00 0.00 25 1011.6
20260509234022 87 354 4.0 10.0 0.00 0.00 0.00 25 1011.7
20260509233604 87 354 4.0 10.0 0.00 0.00 0.00 25 1011.7
20260509233106 87 5 1.0 5.0 0.00 0.00 0.00 25 1011.8
20260509233022 87 342 1.0 7.0 0.00 0.00 0.00 26 1011.8
20260509232605 87 342 1.0 7.0 0.00 0.00 0.00 26 1011.8
20260509232022 87 3 0.0 3.0 0.00 0.00 0.00 26 1011.9
20260509231604 87 3 0.0 3.0 0.00 0.00 0.00 26 1011.9
20260509231104 87 336 1.0 9.0 0.00 0.00 0.00 25 1012.0
20260509231022 88 321 2.0 8.0 0.00 0.00 0.00 26 1012.0
20260509230604 88 321 2.0 8.0 0.00 0.00 0.00 26 1012.0
20260509230105 88 352 1.0 6.0 0.00 0.00 0.00 26 1012.0
20260509230024 88 325 2.0 6.0 0.00 0.00 0.00 25 1012.1
20260509225605 88 325 2.0 6.0 0.00 0.00 0.00 25 1012.1
20260509225106 88 15 2.0 8.0 0.00 0.00 0.00 26 1012.2
20260509225020 87 317 1.0 8.0 0.00 0.00 0.00 27 1012.2
20260509224605 87 317 1.0 8.0 0.00 0.00 0.00 27 1012.2
20260509224106 87 336 0.0 6.0 0.00 0.00 0.00 29 1012.3
20260509224021 86 38 1.0 5.0 0.00 0.00 0.00 30 1012.4
20260509223604 86 38 1.0 5.0 0.00 0.00 0.00 30 1012.4
20260509223105 87 331 0.0 3.0 0.00 0.00 0.00 29 1012.4
20260509223024 86 357 0.0 3.0 0.00 0.00 0.00 30 1012.6
20260509222604 86 357 0.0 3.0 0.00 0.00 0.00 30 1012.6
20260509221605 86 308 0.0 1.0 0.00 0.00 0.00 33 1012.7
20260509221106 86 308 0.0 3.0 0.00 0.00 0.00 30 1012.7
20260509221020 86 355 0.0 2.0 0.00 0.00 0.00 31 1012.8
20260509220105 85 348 0.0 3.0 0.00 0.00 0.00 33 1012.9
20260509220024 85 350 0.0 0.0 0.00 0.00 0.00 33 1013.1
20260509215106 85 350 1.0 5.0 0.00 0.00 0.00 33 1013.1
20260509215021 84 22 0.0 1.0 0.00 0.00 0.00 37 1013.3
20260509214105 84 24 0.0 0.0 0.00 0.00 0.00 33 1013.3
20260509214023 84 24 0.0 3.0 0.00 0.00 0.00 33 1013.4
20260509213604 84 24 0.0 3.0 0.00 0.00 0.00 33 1013.4
20260509213105 83 44 0.0 0.0 0.00 0.00 0.00 37 1013.5
20260509213024 83 46 0.0 1.0 0.00 0.00 0.00 34 1013.6
20260509212605 83 46 0.0 1.0 0.00 0.00 0.00 34 1013.6
20260509212105 83 76 0.0 2.0 0.00 0.00 0.00 36 1013.7
20260509212020 84 69 1.0 8.0 0.00 0.00 0.00 32 1013.7
20260509211605 84 69 1.0 8.0 0.00 0.00 0.00 32 1013.7
20260509211106 84 42 0.0 3.0 0.00 0.00 0.00 39 1013.8
20260509211021 83 26 0.0 3.0 0.00 0.00 0.00 35 1013.8
20260509210024 82 36 0.0 5.0 0.00 0.00 0.00 36 1013.9
20260509205106 82 56 0.0 3.0 0.00 0.00 0.00 34 1014.0
20260509205021 82 45 0.0 1.0 0.00 0.00 0.00 40 1014.0
20260509204605 82 45 0.0 1.0 0.00 0.00 0.00 40 1014.0
20260509204106 81 56 0.0 0.0 0.00 0.00 0.00 36 1014.1
20260509203605 82 55 2.0 5.0 0.00 0.00 0.00 36 1014.2
20260509203104 80 6 0.0 2.0 0.00 0.00 0.00 36 1014.2
20260509203024 79 5 0.0 3.0 0.00 0.00 0.00 40 1014.3
20260509202605 79 5 0.0 3.0 0.00 0.00 0.00 40 1014.3
20260509202106 79 17 0.0 5.0 0.00 0.00 0.00 39 1014.4
20260509202021 79 31 0.0 3.0 0.00 0.00 0.00 42 1014.4
20260509201021 79 355 2.0 7.0 0.00 0.00 0.00 41 1014.5
20260509200105 78 350 0.0 1.0 0.00 0.00 0.00 41 1014.6
20260509200025 79 0 1.0 3.0 0.00 0.00 0.00 41 1014.6
20260509195605 79 0 1.0 3.0 0.00 0.00 0.00 41 1014.6
20260509195105 78 357 2.0 5.0 0.00 0.00 0.00 44 1014.8
20260509195020 77 349 2.0 6.0 0.00 0.00 0.00 42 1014.9
20260509194605 77 349 2.0 6.0 0.00 0.00 0.00 42 1014.9
20260509194023 75 105 0.0 3.0 0.00 0.00 0.00 44 1015.1
20260509193605 75 105 0.0 3.0 0.00 0.00 0.00 44 1015.1
20260509193106 75 123 0.0 0.0 0.00 0.00 0.00 48 1015.2
20260509193023 74 117 0.0 0.0 0.00 0.00 0.00 45 1015.2
20260509192604 74 117 0.0 0.0 0.00 0.00 0.00 45 1015.2
20260509192104 75 101 0.0 1.0 0.00 0.00 0.00 50 1015.3
20260509192022 74 105 0.0 0.0 0.00 0.00 0.00 48 1015.4
20260509191604 74 105 0.0 0.0 0.00 0.00 0.00 48 1015.4
20260509191021 74 38 2.0 3.0 0.00 0.00 0.00 43 1015.6
20260509190606 74 38 2.0 3.0 0.00 0.00 0.00 43 1015.6
20260509190023 73 33 0.0 0.0 0.00 0.00 0.00 48 1015.7
20260509185604 73 33 0.0 0.0 0.00 0.00 0.00 48 1015.7
20260509185104 72 37 0.0 0.0 0.00 0.00 0.00 47 1015.7
20260509185022 72 33 0.0 0.0 0.00 0.00 0.00 51 1015.8
20260509184605 72 33 0.0 0.0 0.00 0.00 0.00 51 1015.8
20260509184105 72 42 0.0 0.0 0.00 0.00 0.00 44 1015.9
20260509184021 71 42 1.0 3.0 0.00 0.00 0.00 49 1016.0
20260509183606 71 42 1.0 3.0 0.00 0.00 0.00 49 1016.0
20260509183104 70 306 1.0 3.0 0.00 0.00 0.00 49 1016.1
20260509183023 70 302 0.0 2.0 0.00 0.00 0.00 48 1016.2
20260509182605 70 302 0.0 2.0 0.00 0.00 0.00 48 1016.2
20260509182106 70 300 0.0 2.0 0.00 0.00 0.00 49 1016.2
20260509182021 69 298 0.0 0.0 0.00 0.00 0.00 50 1016.1
20260509181604 69 298 0.0 0.0 0.00 0.00 0.00 50 1016.1
20260509181105 69 295 0.0 1.0 0.00 0.00 0.00 51 1016.2
20260509181022 68 304 1.0 3.0 0.00 0.00 0.00 54 1016.3
20260509180605 68 304 1.0 3.0 0.00 0.00 0.00 54 1016.3
20260509180023 67 283 0.0 0.0 0.00 0.00 0.00 53 1016.5
20260509175606 67 283 0.0 0.0 0.00 0.00 0.00 53 1016.5
20260509175107 67 284 1.0 2.0 0.00 0.00 0.00 52 1016.6
20260509175022 67 286 0.0 1.0 0.00 0.00 0.00 51 1016.7
20260509174604 67 286 0.0 1.0 0.00 0.00 0.00 51 1016.7
20260509174104 67 260 0.0 3.0 0.00 0.00 0.00 53 1016.6
20260509174021 67 244 0.0 3.0 0.00 0.00 0.00 56 1016.7
20260509173606 67 244 0.0 3.0 0.00 0.00 0.00 56 1016.7
20260509173022 67 316 0.0 0.0 0.00 0.00 0.00 53 1016.8
20260509172604 67 316 0.0 0.0 0.00 0.00 0.00 53 1016.8
20260509172104 67 317 0.0 0.0 0.00 0.00 0.00 54 1016.9
20260509172022 67 321 0.0 0.0 0.00 0.00 0.00 54 1017.0
20260509171604 67 321 0.0 0.0 0.00 0.00 0.00 54 1017.0
20260509171104 66 336 0.0 0.0 0.00 0.00 0.00 58 1017.0
20260509170104 65 336 0.0 2.0 0.00 0.00 0.00 56 1017.2
20260509170022 65 328 0.0 2.0 0.00 0.00 0.00 56 1017.3
20260509165104 64 320 0.0 1.0 0.00 0.00 0.00 57 1017.4
20260509165020 64 321 1.0 3.0 0.00 0.00 0.00 57 1017.3
20260509164604 64 321 1.0 3.0 0.00 0.00 0.00 57 1017.3
20260509164104 63 300 0.0 0.0 0.00 0.00 0.00 58 1017.4
20260509164021 63 302 0.0 0.0 0.00 0.00 0.00 61 1017.4
20260509163605 63 302 0.0 0.0 0.00 0.00 0.00 61 1017.4
20260509163105 62 311 0.0 0.0 0.00 0.00 0.00 62 1017.4
20260509163022 62 300 0.0 0.0 0.00 0.00 0.00 61 1017.5
20260509162604 62 300 0.0 0.0 0.00 0.00 0.00 61 1017.5
20260509162104 61 300 0.0 0.0 0.00 0.00 0.00 63 1017.6
20260509161605 61 307 0.0 1.0 0.00 0.00 0.00 61 1017.7
20260509161105 61 350 0.0 0.0 0.00 0.00 0.00 63 1017.7
20260509161021 60 5 0.0 0.0 0.00 0.00 0.00 63 1017.7
20260509160604 60 5 0.0 0.0 0.00 0.00 0.00 63 1017.7
20260509160105 60 5 0.0 0.0 0.00 0.00 0.00 64 1017.9
20260509160023 60 5 0.0 0.0 0.00 0.00 0.00 66 1017.9
20260509155604 60 5 0.0 0.0 0.00 0.00 0.00 66 1017.9
20260509155104 59 5 0.0 0.0 0.00 0.00 0.00 66 1017.9
20260509155022 59 5 0.0 0.0 0.00 0.00 0.00 67 1017.9
20260509154604 59 5 0.0 0.0 0.00 0.00 0.00 67 1017.9
20260509154104 58 5 0.0 0.0 0.00 0.00 0.00 67 1018.0
20260509154021 58 5 0.0 0.0 0.00 0.00 0.00 69 1018.1
20260509153604 58 5 0.0 0.0 0.00 0.00 0.00 69 1018.1
20260509153104 57 5 0.0 0.0 0.00 0.00 0.00 71 1018.2
20260509153023 57 9 0.0 0.0 0.00 0.00 0.00 71 1018.2
20260509152604 57 9 0.0 0.0 0.00 0.00 0.00 71 1018.2
20260509152105 56 9 0.0 0.0 0.00 0.00 0.00 71 1018.3
20260509152022 56 9 0.0 0.0 0.00 0.00 0.00 73 1018.3
20260509151604 56 9 0.0 0.0 0.00 0.00 0.00 73 1018.3
20260509151104 56 13 0.0 0.0 0.00 0.00 0.00 73 1018.3
20260509150605 55 19 0.0 0.0 0.00 0.00 0.00 75 1018.4
20260509150022 54 24 0.0 0.0 0.00 0.00 0.00 76 1018.5
20260509145604 54 24 0.0 0.0 0.00 0.00 0.00 76 1018.5
20260509145106 54 31 0.0 0.0 0.00 0.00 0.00 79 1018.3
20260509145022 53 34 0.0 0.0 0.00 0.00 0.00 82 1018.3
20260509144104 52 34 0.0 0.0 0.00 0.00 0.00 84 1018.4
20260509144022 51 35 0.0 0.0 0.00 0.00 0.00 86 1018.4
20260509143604 51 35 0.0 0.0 0.00 0.00 0.00 86 1018.4
20260509143104 51 35 0.0 0.0 0.00 0.00 0.00 87 1018.3
20260509143022 50 35 0.0 0.0 0.00 0.00 0.00 87 1018.3
20260509142604 50 35 0.0 0.0 0.00 0.00 0.00 87 1018.3
20260509142104 50 35 0.0 0.0 0.00 0.00 0.00 88 1018.4
20260509142020 49 35 0.0 0.0 0.00 0.00 0.00 88 1018.5
20260509141604 49 35 0.0 0.0 0.00 0.00 0.00 88 1018.5
20260509141104 48 36 0.0 0.0 0.00 0.00 0.00 88 1018.4
20260509140105 47 36 0.0 0.0 0.00 0.00 0.00 87 1018.6
20260509140023 47 36 0.0 0.0 0.00 0.00 0.00 87 1018.6
20260509135604 47 36 0.0 0.0 0.00 0.00 0.00 87 1018.6
20260509135106 47 36 0.0 0.0 0.00 0.00 0.00 86 1018.5
20260509135021 46 36 0.0 0.0 0.00 0.00 0.00 86 1018.5
20260509134604 46 36 0.0 0.0 0.00 0.00 0.00 86 1018.5
20260509134104 47 36 0.0 0.0 0.00 0.00 0.00 85 1018.6
20260509134020 46 36 0.0 0.0 0.00 0.00 0.00 85 1018.6
20260509133604 46 36 0.0 0.0 0.00 0.00 0.00 85 1018.6
20260509133104 46 36 0.0 0.0 0.00 0.00 0.00 84 1018.5
20260509133026 46 36 0.0 0.0 0.00 0.00 0.00 85 1018.4
20260509132604 46 36 0.0 0.0 0.00 0.00 0.00 85 1018.4
20260509132106 46 36 0.0 0.0 0.00 0.00 0.00 84 1018.6
20260509132020 47 36 0.0 0.0 0.00 0.00 0.00 84 1018.6
20260509131105 47 36 0.0 0.0 0.00 0.00 0.00 84 1018.5
20260509130604 47 36 0.0 0.0 0.00 0.00 0.00 84 1018.5
20260509130105 47 36 0.0 0.0 0.00 0.00 0.00 84 1018.5
20260509130023 47 36 0.0 0.0 0.00 0.00 0.00 84 1018.5
20260509125604 47 36 0.0 0.0 0.00 0.00 0.00 84 1018.5
20260509125105 47 36 0.0 0.0 0.00 0.00 0.00 83 1018.5
20260509125023 47 36 0.0 0.0 0.00 0.00 0.00 84 1018.5
20260509124605 47 36 0.0 0.0 0.00 0.00 0.00 84 1018.5
20260509124022 47 36 0.0 0.0 0.00 0.00 0.00 83 1018.6
20260509123604 47 36 0.0 0.0 0.00 0.00 0.00 83 1018.6
20260509123106 47 36 0.0 0.0 0.00 0.00 0.00 83 1018.6
20260509123021 47 36 0.0 0.0 0.00 0.00 0.00 83 1018.6
20260509122106 48 36 0.0 0.0 0.00 0.00 0.00 83 1018.6
20260509121020 48 36 0.0 0.0 0.00 0.00 0.00 82 1018.6
20260509120605 48 36 0.0 0.0 0.00 0.00 0.00 82 1018.6
20260509120106 48 36 0.0 0.0 0.00 0.00 0.00 82 1018.6
20260509120021 48 36 0.0 0.0 0.00 0.00 0.00 82 1018.7
20260509115104 48 36 0.0 0.0 0.00 0.00 0.00 82 1018.8
20260509114604 49 36 0.0 0.0 0.00 0.00 0.00 82 1018.7
20260509114106 49 36 0.0 0.0 0.00 0.00 0.00 82 1018.8
20260509114021 49 36 0.0 0.0 0.00 0.00 0.00 82 1018.8
20260509113605 49 36 0.0 0.0 0.00 0.00 0.00 82 1018.8
20260509113106 49 36 0.0 0.0 0.00 0.00 0.00 81 1018.8
20260509113021 49 36 0.0 0.0 0.00 0.00 0.00 81 1019.0
20260509112604 49 36 0.0 0.0 0.00 0.00 0.00 81 1019.0
20260509112106 49 36 0.0 0.0 0.00 0.00 0.00 81 1018.9
20260509112020 49 36 0.0 0.0 0.00 0.00 0.00 80 1019.0
20260509111604 49 36 0.0 0.0 0.00 0.00 0.00 80 1019.0
20260509111106 49 36 0.0 0.0 0.00 0.00 0.00 80 1019.0
20260509111021 50 36 0.0 0.0 0.00 0.00 0.00 80 1019.0
20260509110604 50 36 0.0 0.0 0.00 0.00 0.00 80 1019.0
20260509110106 50 36 0.0 0.0 0.00 0.00 0.00 80 1019.0
20260509110020 50 36 0.0 0.0 0.00 0.00 0.00 80 1018.9
20260509105605 50 36 0.0 0.0 0.00 0.00 0.00 80 1018.9
20260509105106 50 36 0.0 0.0 0.00 0.00 0.00 80 1018.9
20260509104605 50 36 0.0 0.0 0.00 0.00 0.00 80 1018.8
20260509104108 50 36 0.0 0.0 0.00 0.00 0.00 79 1018.8
20260509104021 51 36 0.0 0.0 0.00 0.00 0.00 79 1018.8
20260509103604 51 36 0.0 0.0 0.00 0.00 0.00 79 1018.8
20260509103105 51 36 0.0 0.0 0.00 0.00 0.00 78 1018.7
20260509103023 51 36 0.0 0.0 0.00 0.00 0.00 79 1018.7
20260509102604 51 36 0.0 0.0 0.00 0.00 0.00 79 1018.7
20260509102022 51 36 0.0 0.0 0.00 0.00 0.00 78 1018.7
20260509101604 51 36 0.0 0.0 0.00 0.00 0.00 78 1018.7
20260509101105 52 37 0.0 0.0 0.00 0.00 0.00 78 1018.7
20260509101020 52 37 0.0 0.0 0.00 0.00 0.00 78 1018.7
20260509100604 52 37 0.0 0.0 0.00 0.00 0.00 78 1018.7
20260509100106 52 37 0.0 0.0 0.00 0.00 0.00 78 1018.7
20260509100021 52 37 0.0 0.0 0.00 0.00 0.00 77 1018.6
20260509095604 52 37 0.0 0.0 0.00 0.00 0.00 77 1018.6
20260509095106 52 37 0.0 0.0 0.00 0.00 0.00 77 1018.7
20260509095021 52 37 0.0 0.0 0.00 0.00 0.00 77 1018.7
20260509094604 52 37 0.0 0.0 0.00 0.00 0.00 77 1018.7
20260509094022 53 37 0.0 0.0 0.00 0.00 0.00 76 1018.7
20260509093604 53 37 0.0 0.0 0.00 0.00 0.00 76 1018.7
20260509093105 53 37 0.0 0.0 0.00 0.00 0.00 76 1018.7
20260509093021 53 37 0.0 0.0 0.00 0.00 0.00 76 1018.7
20260509092604 53 37 0.0 0.0 0.00 0.00 0.00 76 1018.7
20260509092106 53 37 0.0 0.0 0.00 0.00 0.00 76 1018.8
20260509092021 53 37 0.0 0.0 0.00 0.00 0.00 76 1018.8
20260509091605 53 37 0.0 0.0 0.00 0.00 0.00 76 1018.8
20260509091022 54 37 0.0 0.0 0.00 0.00 0.00 75 1018.9
20260509090604 54 37 0.0 0.0 0.00 0.00 0.00 75 1018.9
20260509090021 54 37 0.0 0.0 0.00 0.00 0.00 74 1019.0
20260509085605 54 37 0.0 0.0 0.00 0.00 0.00 74 1019.0
20260509085021 55 37 0.0 0.0 0.00 0.00 0.00 73 1018.8
20260509084605 55 37 0.0 0.0 0.00 0.00 0.00 73 1018.8
20260509084106 55 37 0.0 0.0 0.00 0.00 0.00 73 1018.9
20260509083605 55 37 0.0 0.0 0.00 0.00 0.00 73 1019.0
20260509083106 55 37 0.0 0.0 0.00 0.00 0.00 72 1019.0
20260509083022 56 37 0.0 0.0 0.00 0.00 0.00 72 1019.0
20260509082604 56 37 0.0 0.0 0.00 0.00 0.00 72 1019.0
20260509082023 56 37 0.0 0.0 0.00 0.00 0.00 71 1019.1
20260509081104 56 37 0.0 0.0 0.00 0.00 0.00 70 1019.1
20260509080604 57 37 0.0 0.0 0.00 0.00 0.00 70 1019.1
20260509080104 57 37 0.0 0.0 0.00 0.00 0.00 70 1019.0
20260509080021 57 37 0.0 0.0 0.00 0.00 0.00 69 1019.0
20260509075606 57 37 0.0 0.0 0.00 0.00 0.00 69 1019.0
20260509075021 57 37 0.0 0.0 0.00 0.00 0.00 68 1019.0
20260509074606 57 37 0.0 0.0 0.00 0.00 0.00 68 1019.0
20260509074105 58 37 0.0 0.0 0.00 0.00 0.00 69 1018.9
20260509073104 58 36 0.0 0.0 0.00 0.00 0.00 68 1018.9
20260509073021 58 36 0.0 0.0 0.00 0.00 0.00 68 1018.8
20260509072020 59 36 0.0 0.0 0.00 0.00 0.00 67 1018.8
20260509071604 59 36 0.0 0.0 0.00 0.00 0.00 67 1018.8